Погода в Туруханске

Россия / Красноярский край     65°47′35″N   87°57′33″E
темп.,
°C
ветер,
м/с
пор.,
м/с
влажн.,
%
обл.,
%
осадки,
мм/ч
давл.,
гПа
погр.,
м
4 августа, ср
ср401:00+15вюв510875 0.1 1008146
04:00+14вюв5987100 0.0 1009126
07:00+17вюв59806 0.0 1010259
10:00+22юв56560 0.0 1010927
13:00+25ю454637 0.0 10101967
16:00+22вюв225713 0.0 101017
19:00+25вюв35506 0.0 1010664
22:00+20в465785 0.0 101174
5 августа, чт
чт501:00+18в446273 0.0 101237
04:00+17в446220 0.0 101227
07:00+19в366344 0.0 1012139
10:00+25в344835 0.0 1012528
13:00+28в44375 0.0 10121672
16:00+29в45365 0.0 10112320
19:00+27св4749100 0.0 1011164
22:00+22в595766 0.0 1011112
6 августа, пт
пт601:00+19в585595 0.0 1012102
04:00+17в59595 0.0 1012103
07:00+18в6115764 0.0 1012197
10:00+23в79435 0.0 1011442
13:00+27вюв67365 0.0 10121250
16:00+28вюв55315 0.0 10112041
19:00+26всв47445 0.0 1012224
22:00+20в58565 0.0 101276
7 августа, сб
сб701:00+18вюв57555 0.0 101277
04:00+17вюв44585 0.0 101340
07:00+19вюв35615 0.0 1013115
10:00+24вюв33455 0.0 1013453
13:00+27юв11365 0.0 10131344
16:00+28зсз22345 0.0 10121915
19:00+27ссз22445 0.0 1012275
22:00+20всв33565 0.0 101211
8 августа, вс
вс801:00+19вюв226074 0.0 101211
04:00+20ююв225461 0.0 101218
07:00+21ююв23625 0.0 101284
10:00+25ююз23500 0.0 1012461
13:00+28з44404 0.0 10121481
16:00+28зсз45395 0.0 10121776
19:00+27с344868 0.0 1012288
22:00+21всв22575 0.0 101211